Location: Newark
(54.3386°S, 169.8415°W)
Time: 23:39:25
(UTC+00:00)

Transit 2A Rocket - Pass Details

Date: 26 October 2019
Orbit: 594 x 909 km, 66.7° (Epoch: 17 November)

Event Time Altitude Azimuth Distance (km) Brightness Sun altitude
Rises 10:22:47 0° 223° (SW) 3,532 9.4 -22.7°
Reaches altitude 10° 10:25:17 10° 221° (SW) 2,609 8.5 -22.8°
Maximum altitude 10:31:27 77° 134° (SE) 950 5.4 -22.9°
Enters shadow 10:34:03 37° 55° (NE) 1,399 6.0 -23.0°
Drops below altitude 10° 10:37:33 10° 48° (NE) 2,584 - -23.0°
Sets 10:40:01 0° 46° (NE) 3,497 - -23.1°
